Temp
75 78 82 83 83 83 83 83 83 83 83 83 83 83 83 83 83 83 82 83 83 83 83 83 84 84 84 84 84 84 83 84 84 83 83 83 83 83 83 83 83 82 83
78 80 82 83 83 83 83 83 83 83 83 83 83 83 83 83 83 83 83 83 83 83 83 83 83 83 84 84 84 83 84 83 84 84 84 84 84 83 83 83 83 82 83
78 81 82 82 83 83 83 83 83 83 83 83 83 83 83 83 83 83 83 83 83 84 83 84 84 84 84 84 84 84 84 83 84 84 84 79 80 84 83 84 83 83 83
80 80 81 82 83 83 83 83 83 83 83 83 83 83 83 83 83 83 84 84 84 83 83 83 84 84 84 84 84 84 83 84 84 83 77 80 83 83 83 83 83 82 82
79 79 81 82 83 83 83 83 83 84 83 83 83 83 83 84 84 83 83 84 84 84 84 84 84 84 84 84 83 84 83 83 83 81 75 74 78 83 83 83 82 83 82
77 78 82 83 83 83 83 83 83 83 83 83 83 84 83 83 84 84 84 84 84 83 84 84 84 83 83 83 83 83 83 83 80 75 73 74 76 83 83 83 83 83 82
76 79 81 83 83 83 83 83 83 83 83 83 84 84 84 84 84 84 83 84 84 84 84 84 84 83 83 83 83 83 83 82 76 74 74 74 75 82 83 83 83 82 82
78 80 81 83 83 83 84 83 83 83 83 83 83 84 84 84 84 84 84 84 84 84 84 83 84 84 83 83 83 83 83 84 78 75 75 75 77 82 84 83 82 82 82
80 79 80 81 83 84 84 83 83 83 83 83 84 84 84 84 83 81 81 83 84 84 84 84 83 83 83 83 83 82 83 80 74 73 78 74 79 79 83 83 82 82 82
79 79 78 79 80 79 80 83 83 83 83 83 84 83 83 82 82 82 81 82 83 84 84 84 84 83 83 83 83 83 83 78 73 73 74 74 78 81 81 83 82 82 82
78 77 78 78 76 75 76 81 83 83 83 84 83 83 81 75 74 77 79 81 82 83 84 84 84 83 83 83 83 83 83 71 71 70 70 76 80 82 82 83 83 82 82
75 76 77 77 76 76 81 76 75 77 76 74 75 74 73 74 72 75 77 83 83 82 83 84 84 83 83 76 76 81 75 72 71 70 70 77 80 82 83 82 83 82 82
77 78 78 77 77 77 79 75 74 72 72 73 73 72 71 74 74 75 71 72 71 78 76 80 78 78 77 74 75 74 73 73 72 71 76 78 80 82 83 82 82 83 82
78 79 79 79 78 77 78 75 74 73 72 73 71 71 69 71 70 70 69 71 71 73 72 74 73 74 75 74 74 73 74 72 71 71 74 79 80 80 82 83 83 82 83
79 80 80 80 78 79 77 75 75 73 74 73 72 73 72 70 69 70 70 71 72 73 73 72 72 73 74 74 72 73 73 72 73 73 71 78 77 80 80 82 83 82 83
82 82 82 80 80 79 76 75 74 74 74 73 72 73 72 71 70 71 71 71 72 73 73 72 72 71 72 73 74 74 73 73 72 74 74 74 79 80 81 81 82 82 83
83 84 82 81 80 78 77 76 74 75 74 73 73 72 73 72 71 72 71 71 72 73 72 72 72 72 70 72 72 73 76 76 72 73 75 74 77 80 81 81 82 82 83
82 82 83 85 81 79 78 75 75 74 74 74 73 73 73 73 72 71 71 71 73 72 71 70 70 70 71 70 71 73 74 74 73 73 74 75 76 79 80 81 81 82 83
82 82 83 83 80 78 76 75 74 74 74 74 73 72 74 74 75 72 72 72 72 72 71 71 71 70 69 70 71 73 72 71 71 78 73 75 74 75 74 79 81 81 83
81 81 83 82 80 78 76 73 72 72 72 72 72 74 74 73 75 72 72 72 72 71 70 71 70 70 70 70 73 73 72 71 71 70 71 73 72 74 74 74 74 76 81
83 82 80 81 80 76 72 71 71 73 71 72 72 75 74 74 75 73 72 71 71 71 71 71 70 70 69 71 69 69 70 71 71 69 70 70 72 73 73 72 73 71 73
82 82 79 78 75 77 78 75 73 72 72 72 74 74 74 75 75 74 72 71 71 70 70 70 71 69 70 70 67 67 65 66 68 69 69 71 70 72 72 73 71 71 72
82 81 80 76 73 77 75 73 72 72 73 71 72 72 74 74 74 73 73 72 71 71 70 70 70 70 69 69 69 67 64 62 64 68 69 68 70 69 71 71 72 72 71
83 84 82 79 76 78 76 73 72 70 69 71 72 73 73 74 74 74 73 73 71 71 70 71 71 69 68 67 68 70 69 67 64 63 67 67 69 69 69 69 71 72 72
86 84 82 80 78 79 79 76 74 71 71 72 72 72 71 72 74 76 74 73 73 72 71 71 71 69 69 68 67 67 68 68 67 65 62 67 68 69 69 70 71 71 71
86 85 84 80 79 80 79 76 74 72 72 71 71 71 71 72 73 74 75 74 74 73 71 71 70 70 70 69 69 68 67 66 65 65 63 65 65 68 69 69 70 72 71
MSLP
1014.04 1013.92 1014.05 1014.18 1014.52 1014.64 1014.74 1014.91 1015.11 1015.28 1015.45 1015.65 1015.80 1015.82 1015.86 1015.94 1016.23 1016.46 1016.36 1016.60 1016.71 1016.80 1016.98 1017.04 1016.97 1016.93 1016.97 1017.08 1017.08 1017.11 1017.16 1017.03 1017.11 1017.24 1017.46 1017.54 1017.70 1017.90 1017.98 1017.92 1018.02 1018.05 1018.04
1013.36 1013.76 1014.07 1014.28 1014.57 1014.81 1014.97 1015.09 1015.30 1015.44 1015.62 1015.85 1015.96 1016.04 1016.16 1016.27 1016.52 1016.66 1016.82 1016.82 1016.77 1016.87 1017.16 1017.25 1017.25 1017.15 1017.06 1017.21 1017.36 1017.54 1017.48 1017.51 1017.54 1017.60 1017.69 1017.90 1018.04 1018.19 1018.20 1018.32 1018.29 1018.38 1018.37
1013.46 1013.70 1014.01 1014.32 1014.68 1015.04 1015.19 1015.27 1015.41 1015.59 1015.81 1016.01 1016.16 1016.20 1016.27 1016.38 1016.51 1016.67 1016.89 1017.08 1017.07 1017.08 1017.36 1017.51 1017.39 1017.34 1017.44 1017.45 1017.53 1017.59 1017.71 1017.76 1017.75 1017.80 1017.98 1018.05 1018.22 1018.15 1018.33 1018.43 1018.56 1018.66 1018.67
1013.32 1013.76 1014.07 1014.38 1014.81 1015.20 1015.38 1015.46 1015.56 1015.72 1015.98 1016.14 1016.32 1016.32 1016.36 1016.41 1016.56 1016.77 1016.99 1017.08 1017.15 1017.28 1017.50 1017.56 1017.47 1017.61 1017.88 1017.78 1017.71 1017.82 1017.90 1018.02 1018.19 1018.22 1018.29 1018.28 1018.23 1018.38 1018.38 1018.58 1018.76 1018.80 1018.82
1013.57 1013.91 1014.19 1014.44 1014.87 1015.28 1015.49 1015.65 1015.73 1015.82 1016.02 1016.22 1016.40 1016.52 1016.59 1016.62 1016.73 1016.92 1017.12 1017.25 1017.31 1017.40 1017.54 1017.51 1017.69 1017.94 1018.13 1018.04 1017.88 1017.98 1017.98 1018.29 1018.11 1018.54 1018.74 1018.52 1018.20 1018.35 1018.50 1018.63 1018.81 1018.87 1018.98
1013.80 1014.04 1014.25 1014.61 1014.88 1015.27 1015.52 1015.75 1015.85 1015.96 1016.13 1016.39 1016.64 1016.64 1016.79 1016.83 1016.93 1017.11 1017.28 1017.35 1017.48 1017.51 1017.51 1017.63 1017.77 1017.90 1018.09 1018.17 1018.23 1018.18 1018.23 1018.23 1018.36 1018.58 1018.78 1018.87 1018.70 1018.45 1018.62 1018.74 1018.73 1018.97 1019.08
1013.97 1014.19 1014.40 1014.71 1014.98 1015.29 1015.54 1015.85 1015.91 1016.05 1016.25 1016.48 1016.64 1016.79 1016.90 1017.02 1017.17 1017.31 1017.39 1017.41 1017.50 1017.67 1017.76 1017.79 1017.76 1017.79 1018.01 1018.10 1018.24 1018.27 1018.45 1018.44 1018.55 1018.67 1018.72 1018.80 1018.82 1018.87 1018.87 1018.79 1018.87 1018.99 1019.16
1013.81 1014.13 1014.48 1014.83 1015.10 1015.36 1015.57 1015.87 1015.93 1016.06 1016.34 1016.58 1016.79 1016.91 1016.98 1017.10 1017.29 1017.42 1017.53 1017.59 1017.62 1017.64 1017.77 1017.94 1017.96 1017.96 1018.02 1018.18 1018.34 1018.44 1018.26 1018.11 1018.59 1018.61 1018.50 1018.55 1018.70 1018.79 1018.95 1019.06 1019.06 1019.16 1019.03
1013.77 1014.11 1014.48 1014.77 1015.01 1015.27 1015.61 1015.74 1015.87 1016.13 1016.48 1016.68 1016.84 1016.91 1017.04 1017.16 1017.36 1017.60 1017.72 1017.71 1017.70 1017.68 1017.67 1017.86 1017.88 1017.97 1017.95 1018.13 1018.34 1018.62 1018.37 1018.32 1018.50 1018.76 1018.42 1018.60 1018.55 1018.77 1018.93 1019.11 1019.23 1019.34 1019.31
1014.25 1014.25 1014.52 1014.76 1015.02 1015.38 1015.67 1015.71 1015.88 1016.19 1016.41 1016.59 1016.65 1016.75 1016.84 1017.05 1017.27 1017.47 1017.64 1017.65 1017.71 1017.59 1017.61 1017.65 1017.72 1017.75 1017.82 1017.96 1018.10 1018.50 1018.56 1018.60 1018.65 1018.57 1018.71 1018.83 1018.77 1018.83 1018.91 1018.97 1019.12 1019.20 1019.35
1014.43 1014.57 1014.77 1014.89 1015.06 1015.45 1015.73 1015.78 1015.90 1016.05 1016.25 1016.50 1016.72 1016.81 1016.95 1017.12 1017.16 1017.25 1017.40 1017.48 1017.51 1017.54 1017.55 1017.48 1017.39 1017.50 1017.66 1017.74 1017.89 1018.17 1018.31 1018.62 1018.76 1018.59 1018.60 1018.52 1018.41 1018.52 1018.72 1018.82 1018.94 1019.28 1019.26
1014.24 1014.42 1014.61 1014.88 1015.00 1015.28 1015.37 1015.57 1015.81 1015.90 1016.17 1016.49 1016.64 1016.80 1017.07 1017.11 1017.18 1017.19 1017.20 1017.20 1017.23 1017.31 1017.35 1017.24 1017.18 1017.25 1017.47 1017.62 1017.63 1017.81 1018.16 1018.22 1018.32 1018.59 1018.54 1018.55 1018.56 1018.38 1018.35 1018.51 1018.86 1019.06 1019.00
1013.37 1014.04 1014.37 1014.65 1014.69 1014.63 1014.86 1015.31 1015.57 1015.77 1016.00 1016.22 1016.47 1016.77 1017.00 1016.91 1016.93 1017.04 1017.21 1017.15 1017.20 1017.00 1017.07 1017.07 1016.99 1016.94 1016.96 1017.38 1017.55 1017.56 1017.93 1017.90 1018.08 1018.33 1018.27 1018.34 1018.37 1018.20 1018.27 1018.27 1018.67 1018.67 1018.80
1013.25 1013.48 1013.82 1014.22 1014.47 1014.48 1014.72 1015.14 1015.30 1015.55 1015.88 1016.06 1016.19 1016.40 1016.70 1016.73 1016.88 1016.96 1016.95 1016.78 1016.75 1016.70 1016.88 1016.80 1016.85 1016.75 1016.76 1016.96 1017.20 1017.53 1017.39 1017.48 1017.52 1017.53 1017.49 1017.87 1018.14 1017.70 1017.53 1017.76 1018.20 1018.27 1018.44
1012.97 1013.18 1013.54 1013.75 1014.10 1014.31 1014.45 1014.66 1015.03 1015.21 1015.40 1015.60 1015.82 1015.94 1016.12 1016.33 1016.50 1016.45 1016.51 1016.52 1016.46 1016.43 1016.49 1016.57 1016.57 1016.53 1016.66 1016.67 1016.95 1017.19 1017.11 1017.26 1017.11 1017.02 1017.28 1017.84 1016.92 1016.70 1016.89 1017.12 1017.46 1017.80 1018.00
1012.31 1012.56 1012.97 1013.20 1013.47 1013.80 1014.20 1014.32 1014.61 1014.84 1014.89 1015.20 1015.47 1015.46 1015.63 1015.83 1015.96 1016.03 1016.16 1016.18 1016.05 1016.06 1016.15 1016.31 1016.28 1016.30 1016.62 1016.57 1016.62 1016.62 1016.77 1016.91 1016.79 1016.68 1016.90 1017.36 1016.85 1016.45 1016.28 1016.70 1017.03 1017.22 1017.52
1011.61 1011.96 1012.54 1012.87 1013.15 1013.55 1013.77 1013.92 1014.18 1014.30 1014.59 1014.84 1014.98 1015.14 1015.24 1015.35 1015.49 1015.61 1015.81 1015.97 1015.64 1015.55 1015.73 1015.96 1016.08 1016.29 1016.56 1016.36 1016.41 1016.31 1016.36 1016.24 1016.57 1016.47 1016.40 1016.57 1016.38 1016.31 1016.21 1016.35 1016.43 1016.49 1016.80
1011.21 1011.66 1011.97 1012.40 1012.87 1013.16 1013.33 1013.57 1013.77 1014.07 1014.22 1014.30 1014.46 1014.66 1014.88 1015.01 1015.09 1015.26 1015.56 1015.60 1015.34 1015.43 1015.48 1015.75 1015.86 1016.05 1016.27 1016.31 1015.97 1015.89 1015.90 1015.72 1016.16 1015.91 1016.00 1015.94 1016.07 1015.97 1016.15 1015.93 1015.79 1016.16 1016.31
1010.68 1011.10 1011.57 1011.98 1012.38 1012.80 1013.09 1013.22 1013.46 1013.70 1013.83 1013.98 1014.16 1014.29 1014.33 1014.49 1014.67 1014.97 1015.00 1014.94 1014.96 1015.17 1015.44 1015.66 1015.63 1015.75 1016.02 1016.09 1015.95 1015.63 1015.59 1015.50 1015.52 1015.23 1015.62 1015.73 1015.68 1015.55 1015.52 1015.48 1015.77 1015.99 1015.82
1010.32 1010.75 1011.16 1011.56 1011.98 1012.46 1012.86 1013.24 1013.57 1013.75 1013.66 1013.68 1013.82 1013.75 1013.87 1014.09 1014.30 1014.55 1014.62 1014.57 1014.67 1015.03 1015.28 1015.38 1015.45 1015.52 1015.65 1015.67 1015.75 1015.47 1015.37 1015.32 1015.17 1015.38 1015.56 1015.24 1015.23 1015.19 1015.20 1015.16 1015.21 1015.21 1015.41
1009.99 1010.65 1011.07 1011.41 1011.71 1012.24 1012.77 1013.28 1013.47 1013.39 1013.38 1013.48 1013.22 1013.27 1013.42 1013.53 1013.83 1013.99 1014.07 1014.34 1014.19 1014.44 1014.65 1014.99 1015.20 1015.39 1015.49 1015.50 1015.77 1015.55 1015.10 1014.82 1014.77 1014.84 1014.86 1015.05 1014.80 1014.97 1014.81 1014.75 1014.84 1014.93 1015.21
1009.54 1010.00 1010.61 1011.11 1011.58 1011.82 1012.07 1012.29 1012.60 1012.80 1012.79 1012.73 1012.65 1012.73 1012.95 1013.12 1013.32 1013.56 1013.87 1014.01 1014.13 1014.35 1014.61 1014.71 1014.83 1015.01 1015.16 1015.50 1015.67 1015.77 1015.45 1015.22 1015.02 1014.72 1014.88 1014.73 1014.75 1014.69 1014.62 1014.34 1014.47 1014.67 1014.56
1009.26 1009.54 1009.83 1010.55 1011.10 1011.32 1011.62 1012.13 1012.45 1012.61 1012.67 1012.81 1012.69 1012.60 1012.59 1012.66 1012.77 1013.02 1013.19 1013.48 1013.63 1013.90 1014.11 1014.14 1014.30 1014.64 1014.89 1015.11 1015.31 1015.49 1015.59 1015.56 1015.25 1014.74 1014.66 1014.66 1014.65 1014.55 1014.55 1014.37 1014.25 1013.91 1013.65
1008.49 1008.90 1009.36 1009.82 1010.41 1010.68 1011.05 1011.73 1012.02 1012.15 1012.52 1012.38 1012.43 1012.33 1012.34 1012.25 1012.30 1012.39 1012.57 1012.73 1013.01 1013.31 1013.61 1013.68 1013.80 1014.01 1014.37 1014.62 1014.92 1015.00 1015.22 1015.38 1015.44 1015.22 1014.75 1014.56 1014.33 1014.12 1014.14 1013.87 1013.53 1013.10 1013.22
1008.14 1008.30 1008.71 1009.42 1009.83 1010.02 1010.47 1010.98 1011.57 1011.88 1011.98 1012.06 1012.13 1012.28 1012.28 1012.24 1011.84 1011.73 1011.90 1012.24 1012.43 1012.72 1013.05 1013.20 1013.54 1013.74 1014.04 1014.19 1014.49 1014.75 1014.87 1015.05 1015.14 1015.44 1015.20 1014.65 1014.26 1013.86 1013.75 1013.44 1013.05 1012.57 1012.96
1007.71 1008.17 1008.48 1009.09 1009.61 1009.91 1010.17 1010.51 1011.04 1011.43 1011.69 1011.89 1011.95 1012.26 1012.09 1011.91 1011.81 1011.77 1011.64 1011.81 1011.83 1012.22 1012.64 1012.94 1013.28 1013.46 1013.78 1014.01 1014.15 1014.30 1014.49 1014.65 1014.78 1015.03 1015.06 1014.70 1014.48 1013.83 1013.43 1013.59 1013.50 1013.06 1012.68
Wind_Speed
8 7 14 17 17 17 16 16 15 15 14 14 14 16 15 15 13 13 12 11 11 12 11 12 13 14 13 14 13 15 13 12 13 13 11 10 9 10 10 12 11 8 12
13 10 16 17 18 16 16 16 15 14 14 13 14 14 13 14 13 11 12 12 10 12 12 12 13 13 15 14 15 15 14 14 13 13 12 10 9 8 10 10 8 8 10
13 12 14 17 18 17 15 15 16 14 13 13 13 13 12 13 13 12 12 11 12 12 13 13 13 13 15 15 14 14 14 14 14 13 13 5 5 11 10 12 11 11 10
14 11 12 18 17 16 14 15 15 14 14 13 12 12 12 13 13 12 12 11 13 12 11 12 13 12 12 12 13 13 14 13 13 9 3 3 7 11 11 9 9 9 10
13 11 13 18 17 16 14 15 14 13 13 13 12 11 12 13 12 12 11 12 10 12 11 10 11 11 12 10 9 11 12 12 11 7 2 1 4 8 10 11 10 9 8
12 10 16 18 19 17 15 15 14 12 13 14 13 12 12 11 10 11 10 10 10 9 11 11 10 8 9 9 7 7 9 9 6 6 4 3 2 10 10 10 11 9 8
13 11 14 17 17 16 15 14 14 13 13 14 14 13 11 11 10 10 9 8 9 7 6 7 7 6 6 7 6 4 6 6 4 4 5 1 2 7 10 9 8 9 8
15 12 12 17 17 16 16 15 13 15 15 14 13 12 11 11 9 8 8 8 8 9 7 6 6 7 4 3 4 3 3 3 5 3 5 5 8 9 9 8 9 9 10
16 13 11 11 15 18 16 16 15 14 13 13 12 11 11 10 9 8 7 2 6 7 8 7 7 6 7 6 6 4 4 2 3 3 3 2 10 5 9 10 9 9 9
11 11 11 10 8 7 8 16 15 13 13 13 12 12 12 11 11 8 6 4 4 7 9 9 8 9 9 8 7 5 6 7 3 4 1 2 6 6 3 10 9 10 9
10 9 8 8 9 7 6 9 13 15 13 13 10 11 9 3 4 7 7 4 7 7 9 10 11 11 11 10 10 8 6 4 5 3 2 11 11 11 10 12 12 12 11
15 13 11 10 11 9 8 6 6 7 5 5 5 5 4 4 3 4 7 6 9 9 12 11 12 12 11 4 4 9 3 6 5 5 4 12 12 17 15 10 13 13 13
17 12 13 13 12 13 10 6 4 3 4 4 7 6 5 3 3 2 2 3 2 7 3 6 6 4 5 4 4 4 5 6 5 5 9 15 15 14 12 12 13 16 15
16 16 16 14 12 11 6 6 6 5 4 4 5 6 5 3 3 4 3 4 3 3 4 5 3 5 5 4 5 5 7 5 4 4 8 13 9 11 14 15 17 17 17
16 16 16 15 12 10 9 7 6 6 6 6 5 6 4 4 4 3 3 4 3 3 3 4 4 4 5 6 4 6 5 6 7 5 2 6 14 18 13 17 19 19 18
18 17 16 15 13 11 9 10 8 7 7 6 5 6 7 5 4 4 4 4 4 3 2 3 4 4 3 3 5 5 3 6 6 8 5 8 25 22 15 15 19 20 20
14 17 17 14 12 12 12 11 8 8 6 6 6 7 7 6 6 5 4 4 4 4 4 2 2 3 4 2 5 4 5 6 8 11 10 9 11 24 21 20 21 20 21
11 15 15 13 14 13 12 8 7 6 6 6 5 5 8 8 7 6 4 4 4 4 2 2 3 3 3 4 3 3 4 3 4 8 10 8 10 9 17 26 23 21 20
12 14 15 13 15 13 10 7 6 7 6 5 4 5 7 8 8 6 5 5 4 3 3 3 3 3 3 3 4 3 4 4 5 5 9 6 4 7 4 7 14 19 20
9 13 15 11 13 11 7 4 3 4 4 4 5 5 7 5 7 6 4 5 4 3 3 3 5 4 3 1 3 5 4 4 4 3 5 4 4 4 5 4 2 2 14
10 12 13 13 12 8 4 4 3 5 4 3 6 7 7 6 6 6 4 5 5 5 5 3 3 4 3 2 0 4 3 5 6 4 4 4 5 5 5 5 4 3 2
13 13 12 11 7 8 6 4 3 3 3 3 3 5 6 6 6 5 5 6 6 4 4 5 5 2 2 3 3 1 3 3 2 3 3 3 5 4 4 5 5 4 4
13 14 13 13 10 10 8 3 2 1 1 1 3 3 5 6 6 6 6 5 5 4 4 5 4 6 4 3 5 3 2 3 2 0 4 4 3 2 3 5 5 4 4
17 14 12 11 13 12 9 6 7 5 5 4 3 3 4 5 6 6 7 7 7 4 5 5 4 3 4 5 2 3 3 2 2 3 2 3 3 3 5 4 5 2 2
15 15 13 11 11 12 12 11 9 6 4 2 3 5 5 5 7 6 7 7 7 5 5 5 4 4 3 3 3 2 3 3 3 3 3 3 2 3 4 3 4 3 5
13 14 13 13 11 11 12 10 12 9 6 4 4 3 4 4 4 6 6 6 6 5 4 3 4 5 4 4 3 4 3 3 3 3 3 3 2 4 3 3 3 6 6
Wind_Direction
162 161 143 133 129 123 119 117 113 109 106 101 94 96 97 102 106 111 113 114 128 136 122 120 119 128 131 135 129 136 142 138 132 129 129 126 123 123 127 122 130 124 117
143 152 144 135 131 128 123 123 119 116 113 107 98 98 97 98 98 105 109 114 116 126 126 120 120 127 133 134 135 134 139 137 138 133 128 128 138 145 133 130 121 120 118
140 146 141 133 134 131 133 129 126 128 124 112 107 109 108 107 110 112 110 111 110 118 124 121 125 127 132 134 137 142 144 148 149 139 129 124 134 151 133 138 138 141 127
139 144 144 138 138 139 139 132 134 134 124 124 117 115 117 113 108 109 114 113 115 119 120 126 132 124 123 127 136 144 148 151 141 128 79 119 132 140 137 130 132 131 137
132 137 142 140 142 147 143 137 141 130 135 133 128 124 119 115 115 113 117 116 114 119 118 117 121 126 130 137 143 146 145 144 156 117 79 263 137 145 142 143 149 139 136
133 137 143 147 146 151 145 141 140 141 130 122 123 121 116 116 118 117 117 121 122 131 137 132 127 133 139 147 147 153 151 135 87 133 90 359 330 152 157 159 157 150 150
135 144 147 150 151 153 150 146 148 138 137 132 132 124 121 118 117 120 127 133 131 125 115 126 140 136 137 143 139 132 138 145 144 140 135 28 157 174 173 168 159 160 163
140 144 152 154 154 158 151 150 151 146 139 131 128 126 126 123 123 128 135 141 147 143 145 152 170 164 175 163 153 150 173 207 108 141 160 152 179 175 190 185 177 178 167
146 148 153 157 160 160 157 152 150 145 141 138 139 139 137 137 122 119 102 126 169 167 168 175 176 186 192 205 210 187 192 183 153 172 148 103 132 128 196 200 195 197 195
143 147 155 155 151 147 156 157 155 150 153 154 159 156 146 145 152 153 129 145 220 208 195 189 202 205 213 218 232 209 174 187 187 217 213 190 176 187 218 203 211 203 202
147 153 157 159 153 148 157 170 162 163 168 170 169 160 157 151 174 196 197 254 199 237 226 217 211 211 219 220 221 232 196 184 193 224 191 204 202 202 203 221 214 221 206
164 170 171 172 165 160 170 175 168 176 173 164 170 161 158 188 199 209 217 234 209 227 246 232 227 223 224 202 225 225 176 185 191 194 215 230 244 219 204 215 222 221 220
169 171 179 181 181 173 175 175 175 179 174 178 176 183 189 210 216 224 232 240 258 248 241 245 237 230 211 193 210 207 184 193 197 197 217 217 226 213 222 216 242 227 226
173 182 183 186 187 185 162 179 181 184 179 189 194 185 188 195 214 232 235 259 225 245 237 228 219 229 226 209 227 231 196 210 194 221 229 229 243 225 226 232 237 249 224
180 187 189 186 187 184 175 175 184 192 187 192 189 196 188 202 212 218 223 237 243 242 237 234 229 212 217 212 209 222 205 212 218 221 191 249 318 261 221 231 234 243 240
186 188 186 191 185 179 179 181 188 192 195 184 190 208 202 202 210 212 226 234 243 229 255 231 231 210 237 225 217 211 217 206 224 230 197 198 217 248 244 241 239 243 241
189 184 185 187 178 178 182 183 184 192 186 190 201 207 212 209 212 218 213 229 227 232 247 231 199 203 210 226 241 241 225 208 208 225 218 208 225 240 237 235 233 237 232
170 180 179 181 181 183 186 183 184 186 191 205 206 200 219 215 208 210 215 229 230 234 229 236 237 230 223 232 255 248 253 272 226 203 215 209 213 222 237 240 236 232 233
169 172 178 177 181 183 188 183 180 182 195 207 212 203 217 213 211 205 212 230 235 246 243 236 252 200 210 236 254 245 257 253 248 212 202 207 228 213 216 250 242 249 242
163 169 176 179 183 181 177 163 167 198 214 198 219 220 215 210 212 198 214 230 219 216 243 241 227 209 207 180 270 283 272 255 256 236 186 200 188 182 158 137 150 288 260
170 167 179 185 194 171 159 161 187 208 205 199 214 221 217 201 208 211 215 231 211 213 216 204 213 223 257 188 359 290 268 233 234 199 194 190 170 191 187 151 150 118 25
178 179 177 185 181 190 192 191 163 183 219 193 206 212 200 211 205 207 215 220 224 230 236 209 205 185 198 206 177 183 295 328 268 226 227 213 186 191 221 202 162 151 93
186 185 187 177 185 193 188 142 85 79 328 171 237 236 215 206 212 211 217 217 222 207 227 220 206 208 201 220 217 169 266 260 339 320 242 244 271 241 247 234 175 185 130
198 190 188 179 180 193 176 184 189 181 205 218 208 221 243 222 229 214 212 211 213 203 228 230 204 209 159 200 191 219 207 194 201 321 330 291 274 231 241 238 188 179 153
197 193 189 187 186 187 190 195 198 211 207 237 232 232 238 247 236 226 205 209 211 202 223 210 223 182 192 163 167 162 198 219 198 201 267 305 303 244 228 234 298 280 221
206 201 190 185 194 190 190 190 192 198 204 218 238 249 250 249 248 230 216 205 212 201 215 212 214 210 202 203 187 188 193 190 196 188 226 266 223 280 235 194 219 245 237